Regional Weather Roundup
Issued by NWS

Home | Current Version | Previous Version | Text Only | Print | Product List | Glossary On
Versions: 1 2 3 4 5 6 7 8 9 10 11 12 13 14 15 16 17 18 19 20 21 22 23 24 25 26 27 28 29 30 31 32 33 34 35 36 37 38 39 40 41 42 43 44 45 46 47 48 49 50
000
ASCA44 KEWX 020420
RWRMX

LATIN AMERICA AND CARIBBEAN REGIONAL WEATHER ROUNDUP
NATIONAL WEATHER SERVICE AUSTIN/SAN ANTONIO TX
1100 PM CDT FRI AUG 01 2014

NOTE: "FAIR" INDICATED FEW OR NO CLOUDS BELOW 12,000 FEET WITH NO
SIGNIFICANT WEATHER AND/OR OBSTRUCTIONS TO VISIBILITY.

BAJA CALIFORNIA

CITY           SKY/WX    TMP DP  RH WIND       PRES   REMARKS
LA PAZ         PTCLDY    86  72  62 S9        29.91  HX  92
MEXICALI       MOCLDY    95  64  36 SE8       29.76  HX  97
S.J. DEL CABO  CLEAR     86  72  62 CALM      29.89S HX  92
TIJUANA        PTCLDY    70  61  73 W6        29.92R

NORTHWESTERN MEXICO

CITY           SKY/WX    TMP DP  RH WIND       PRES   REMARKS
CULIACAN       CLOUDY    81  79  94 CALM      29.90
DURANGO        MOCLDY    64  54  68 NW5       30.28R
HERMOSILLO     CLOUDY    88  70  55 N16       29.93  HX  92
CD. JUAREZ     MOCLDY    73  66  78 E6        30.10
LOS MOCHIS       N/A    N/A N/A N/A MISG        N/A
OBREGON          N/A    N/A N/A N/A MISG        N/A

NORTHEASTERN MEXICO

CITY           SKY/WX    TMP DP  RH WIND       PRES   REMARKS
CHIHUAHUA      MOCLDY    70  55  60 S7        30.19
MONTERREY      MOCLDY    84  63  48 NW12      29.96R
NUEVO LAREDO   CLOUDY    77  72  83 SW12      29.96
REYNOSA        PTCLDY    81  70  69 E9        29.94
SALTILLO       PTCLDY    75  59  57 N9        30.20R
TORREON        TSTM      66  64  94 W24       30.16R
CD. VICTORIA   CLEAR     84  68  58 S7G18     29.93R

WESTERN MEXICO

CITY           SKY/WX    TMP DP  RH WIND       PRES   REMARKS
AGUASCALIENTES CLEAR     66  52  59 E6        30.25
DEL BAJIO      CLEAR     66  46  48 NW7       30.25R
GUADALAJARA    MOCLDY    70  61  73 SW7       30.15
MAZATLAN       MOCLDY    73  70  88 CALM      29.86R
P. VALLARTA    PTCLDY    81  73  78 CALM      29.88R
ZACATECAS      MOCLDY    66  48  52 S7        30.30R

CENTRAL MEXICO

CITY           SKY/WX    TMP DP  RH WIND       PRES   REMARKS
MEXICO CITY    PTCLDY    66  48  52 N8        30.34R
MORELIA        CLEAR     61  57  88 CALM      30.22
QUERETARO      CLEAR     68  52  56 CALM      30.28S
S. LUIS POTOSI CLEAR     66  46  48 SE7       30.26R
TAMPICO        PTCLDY    82  75  78 SE10      29.94R
TOLUCA         MOCLDY    59  45  58 NE3       30.40R

SOUTHERN MEXICO

CITY           SKY/WX    TMP DP  RH WIND       PRES   REMARKS
ACAPULCO       PTCLDY    86  77  74 W14       29.84R HX  97
OAXACA         PTCLDY    68  50  52 W8        30.21R
VERACRUZ       PTCLDY    82  77  83 E3        29.95R HX  91

YUCATAN PENINSULA

CITY           SKY/WX    TMP DP  RH WIND       PRES   REMARKS
CAMPECHE       CLEAR     75  72  88 W6        29.91F
CANCUN         PTCLDY    79  77  94 NE3       29.98S
MERIDA         PTCLDY    81  70  69 E9        29.97R
TAPACHULA      MOCLDY    75  73  94 CALM      29.87R
TUX. GUTIERREZ PTCLDY    75  66  73 SE6       29.96
VILLAHERMOSA   CLEAR     82  73  74 NE5       29.93R

CENTRAL AMERICA

CITY           SKY/WX    TMP DP  RH WIND       PRES   REMARKS
MANAGUA        PTCLDY    82  72  69 E9        29.86R

CARIBBEAN

CITY           SKY/WX    TMP DP  RH WIND       PRES   REMARKS
ARUBA          PTCLDY    82  77  83 E22       29.86S HX  91
CURACAO        PTCLDY    81  77  89 E15       29.92R
KINGSTON       PTCLDY    82  75  78 NE6       29.94R
NASSAU         PTCLDY    81  73  78 CALM      29.98S
SAN JUAN       PTCLDY    82  73  74 E7        30.01F
SANTO DOMINGO  PTCLDY    77  73  88 NE6       29.94F
ST. CROIX      PTCLDY    82  72  69 NE14      29.99F
ST. MAARTEN    PTCLDY    82  73  74 E17       29.97F
ST. THOMAS     CLEAR     82  73  74 E13G22    29.99F

$$




USA.gov is the U.S. government's official web portal to all federal, state and local government web resources and services.